Regional Weather Roundup
Issued by NWS

Home | Current Version | Previous Version | Graphics & Text | Print | Product List | Glossary On
Versions: 1 2 3 4 5 6 7 8 9 10 11 12 13 14 15 16 17 18 19 20 21 22 23 24 25 26 27 28 29 30 31 32 33 34 35 36 37 38 39 40 41 42 43 44 45 46 47 48 49 50
000
ASUS43 KFSD 270802
RWRSD

WEATHER ROUNDUP FOR SOUTH DAKOTA
NATIONAL WEATHER SERVICE SIOUX FALLS SD
300 AM CDT THU JUL 27 2017

NOTE: "FAIR" INDICATES FEW OR NO CLOUDS BELOW 12,000 FEET WITH NO
SIGNIFICANT WEATHER AND/OR OBSTRUCTIONS TO VISIBILITY.


SDZ001>005-009-010-012>017-270900-
NORTHWEST AND NORTH CENTRAL SOUTH DAKOTA

CITY           SKY/WX    TMP DP  RH WIND       PRES   REMARKS
BUFFALO          N/A     70  52  52 S10       30.06F
FAITH            N/A     64  53  67 S14       30.13F
MOBRIDGE       CLEAR     68  57  68 E13       30.12R
$$

SDZ012>016-024>037-041>051-057-063-072>074-270900-
SOUTHWEST AND SOUTH CENTRAL SOUTH DAKOTA

CITY           SKY/WX    TMP DP  RH WIND       PRES   REMARKS
RAPID CTY ARPT CLOUDY    66  53  63 S6        30.18S
PIERRE         CLEAR     62  54  74 NE5       30.12R
CUSTER         CLOUDY    63  50  62 S6        30.31S
PHILIP         MOCLDY    70  55  59 CALM      30.14R
PINE RIDGE     CLOUDY    72  63  73 SE8       30.19S
SPEARFISH      FAIR      72  54  53 W5        30.18S
WINNER         FAIR      67  57  70 S5        30.14S
$$

SDZ004>011-016>023-039-040-270900-
NORTHEAST SOUTH DAKOTA

CITY           SKY/WX    TMP DP  RH WIND       PRES   REMARKS
ABERDEEN       CLEAR     60  58  92 CALM      30.13S
WATERTOWN      CLEAR     59  57  93 N5        30.12S
BROOKINGS      CLEAR     62  61  96 CALM      30.13R
SISSETON         N/A     60  58  92 W5        30.11S
$$

SDZ017-020-022-023-036>040-048>070-270900-
SOUTHEAST SOUTH DAKOTA

CITY           SKY/WX    TMP DP  RH WIND       PRES   REMARKS
SIOUX FALLS    CLEAR     60  60 100 CALM      30.10R
HURON          CLEAR     62  59  90 NE3       30.11R
CHAMBERLAIN    CLEAR     63  63  98 CALM      30.14R
MITCHELL       CLEAR     64  62  93 CALM      30.12R
YANKTON        CLEAR     64  60  87 N6        30.10S
$$

ABBREVIATIONS USED IN REMARKS
   TC - TEMPERATURE IN CELSIUS
  WCI - WIND CHILL INDEX
   HX - HEAT INDEX
  VSB - VISIBILITY





USA.gov is the U.S. government's official web portal to all federal, state and local government web resources and services.